Overview Statistics Trail Chart Weather Telemetry Raw packets
 

This is the latest recevied weather packets stored in our database for station/object JF7BTK-10. If no packets are shown the sender has not sent any weather packets the latest 10 day(s).

<< 54 55 56 57 58 59 60 >>
Time Temp. Humidity Pressure Rain* Wind** Luminosity Snow
1787997487 20.56° C 73% 1006.2 hPa 0 mm - - -
1787996588 20.56° C 73% 1006 hPa 0 mm - - -
1787995686 20.56° C 72% 1005.8 hPa 0 mm - - -
1787994788 21.11° C 73% 1005.6 hPa 0 mm - - -
1787993888 21.11° C 73% 1005.6 hPa 0 mm - - -
1787992987 21.11° C 73% 1005.6 hPa 0 mm - - -
1787992851 21.67° C 73% 1005.6 hPa 0 mm - - -
1787992088 21.67° C 73% 1005.6 hPa 0 mm - - -
1787991188 21.67° C 72% 1005.6 hPa 0 mm - - -
1787990287 22.22° C 72% 1005.5 hPa 0 mm - - -
1787989387 22.22° C 71% 1005.5 hPa 0 mm - - -
1787988487 22.78° C 68% 1005.6 hPa 0 mm - - -
1787987592 22.22° C 67% 1005.6 hPa 0 mm - - -
1787986688 23.33° C 65% 1005.6 hPa 0 mm - - -
1787985788 23.33° C 65% 1005.4 hPa 0 mm - - -
1787985651 23.89° C 65% 1005.4 hPa 0 mm - - -
1787984888 23.33° C 65% 1005.5 hPa 0 mm - - -
1787983988 23.33° C 65% 1005.5 hPa 0 mm - - -
1787983087 23.89° C 63% 1005.6 hPa 0 mm - - -
1787982187 24.44° C 63% 1005.7 hPa 0 mm - - -
1787981287 23.89° C 64% 1005.8 hPa 0 mm - - -
1787981152 23.89° C 64% 1005.7 hPa 0 mm - - -
1787980388 24.44° C 63% 1005.6 hPa 0 mm - - -
1787979487 24.44° C 61% 1005.5 hPa 0 mm - - -
1787978587 24.44° C 60% 1005.7 hPa 0 mm - - -

* Rain latest hour (hover to see other rain measurements)
** Current wind speed in m/s (hover to see current wind gust speed)